When you browse on this site, cookies collect data to enhance your experience and personalize the content and advertising you see.
Visit our Privacy Policy to learn more. By continuing to use the site, you agree to this use of cookies and data.
  • In Czech Republic
  • List of Countries
  • For 7 days
  • Water Temperature
  • Weather Map
  • Weather Widgets
  • user-avatar
    Login

    Hourly Weather Podcisowie

    Today, 20 February, Thursday

    Time Temperature Precipitation Wind Pressure Humidity
    00:00 0°C° 0 mm 5 mps 729 mmHg 80%
    01:00 0°C° 0 mm 5 mps 729 mmHg 81%
    02:00 0°C° 0.1 mm 5 mps 729 mmHg 85%
    03:00 -1°C° 0.1 mm 5 mps 730 mmHg 89%
    04:00 -1°C° 0.1 mm 5 mps 730 mmHg 93%
    05:00 -1°C° 0.5 mm 5 mps 730 mmHg 92%
    06:00 -1°C° 0.5 mm 5 mps 730 mmHg 92%
    07:00 0°C° 0 mm 4 mps 731 mmHg 91%
    08:00 0°C° 0.1 mm 4 mps 731 mmHg 87%
    09:00 0°C° 0.1 mm 4 mps 732 mmHg 84%
    10:00 +2°C° 0.1 mm 3 mps 732 mmHg 81%
    11:00 +2°C° 0.1 mm 3 mps 732 mmHg 79%
    12:00 +2°C° 0.1 mm 3 mps 732 mmHg 76%
    13:00 +3°C° 0.1 mm 3 mps 732 mmHg 74%
    14:00 +3°C° 0 mm 3 mps 732 mmHg 72%
    15:00 +4°C° 0 mm 2 mps 732 mmHg 70%
    16:00 +4°C° 0 mm 2 mps 732 mmHg 68%
    17:00 +3°C° 0 mm 2 mps 732 mmHg 72%
    18:00 +3°C° 0 mm 2 mps 731 mmHg 76%
    19:00 +2°C° 0 mm 2 mps 731 mmHg 79%
    20:00 +1°C° 0 mm 3 mps 731 mmHg 80%
    21:00 0°C° 0 mm 3 mps 731 mmHg 80%
    22:00 0°C° 0 mm 3 mps 731 mmHg 80%
    23:00 0°C° 0 mm 3 mps 730 mmHg 78%

    Tomorrow, 21 February, Friday

    Time Temperature Precipitation Wind Pressure Humidity
    00:00 0°C° 0 mm 3 mps 730 mmHg 77%
    01:00 -2°C° 0 mm 4 mps 730 mmHg 76%
    02:00 -1°C° 0 mm 4 mps 729 mmHg 74%
    03:00 -1°C° 0 mm 4 mps 728 mmHg 72%
    04:00 -1°C° 0 mm 4 mps 727 mmHg 70%
    05:00 -1°C° 0 mm 5 mps 727 mmHg 72%
    06:00 -1°C° 0 mm 5 mps 727 mmHg 74%
    07:00 -1°C° 0 mm 6 mps 726 mmHg 77%
    14:00 +1°C° 0 mm 8 mps 731 mmHg 64%
    15:00 +1°C° 0 mm 8 mps 731 mmHg 66%
    16:00 0°C° 0 mm 7 mps 732 mmHg 67%
    17:00 +1°C° 0 mm 6 mps 732 mmHg 71%
    18:00 0°C° 0 mm 5 mps 733 mmHg 75%
    19:00 0°C° 0 mm 4 mps 734 mmHg 78%
    20:00 -1°C° 0 mm 4 mps 734 mmHg 80%
    21:00 -1°C° 0 mm 4 mps 734 mmHg 82%
    22:00 0°C° 0 mm 3 mps 734 mmHg 83%
    23:00 -1°C° 0 mm 3 mps 735 mmHg 84%

    Day after tomorrow, 22 February, Saturday

    Time Temperature Precipitation Wind Pressure Humidity
    00:00 -1°C° 0 mm 3 mps 735 mmHg 86%
    01:00 -1°C° 0 mm 3 mps 735 mmHg 87%
    02:00 -1°C° 0 mm 3 mps 735 mmHg 86%
    03:00 -1°C° 0 mm 3 mps 735 mmHg 85%
    04:00 -1°C° 0 mm 3 mps 735 mmHg 84%
    05:00 -2°C° 0 mm 4 mps 735 mmHg 82%
    06:00 -2°C° 0 mm 4 mps 735 mmHg 80%
    07:00 -2°C° 0 mm 4 mps 735 mmHg 78%
    08:00 -1°C° 0 mm 5 mps 734 mmHg 74%
    09:00 -1°C° 0 mm 6 mps 734 mmHg 70%
    10:00 0°C° 0 mm 7 mps 734 mmHg 66%
    11:00 +2°C° 0 mm 7 mps 733 mmHg 64%
    12:00 +2°C° 0 mm 8 mps 732 mmHg 62%
    13:00 +4°C° 0 mm 8 mps 732 mmHg 60%
    14:00 +4°C° 0 mm 8 mps 731 mmHg 60%
    15:00 +3°C° 0 mm 9 mps 730 mmHg 60%
    16:00 +3°C° 0 mm 9 mps 729 mmHg 59%
    17:00 +3°C° 0 mm 9 mps 729 mmHg 60%
    18:00 +2°C° 0 mm 9 mps 729 mmHg 61%
    19:00 +2°C° 0 mm 8 mps 729 mmHg 62%
    20:00 +3°C° 0 mm 9 mps 729 mmHg 60%
    21:00 +3°C° 0 mm 9 mps 729 mmHg 58%
    22:00 +5°C° 0 mm 9 mps 728 mmHg 56%
    23:00 +5°C° 0 mm 9 mps 728 mmHg 59%

    23 February, Sunday

    Time Temperature Precipitation Wind Pressure Humidity
    00:00 +3°C° 0 mm 9 mps 728 mmHg 63%
    01:00 +3°C° 0 mm 9 mps 728 mmHg 67%
    02:00 +3°C° 0.5 mm 9 mps 728 mmHg 72%
    03:00 +4°C° 0.5 mm 8 mps 727 mmHg 78%
    04:00 +3°C° 0.5 mm 7 mps 727 mmHg 84%
    05:00 +3°C° 0.9 mm 7 mps 727 mmHg 85%
    06:00 +3°C° 0.9 mm 7 mps 727 mmHg 86%
    07:00 +2°C° 0.9 mm 6 mps 727 mmHg 87%
    08:00 +2°C° 0.4 mm 7 mps 728 mmHg 86%
    09:00 +2°C° 0.4 mm 7 mps 728 mmHg 84%
    10:00 +1°C° 0.4 mm 8 mps 728 mmHg 82%
    11:00 +1°C° 0.1 mm 8 mps 728 mmHg 79%
    12:00 +1°C° 0.1 mm 8 mps 728 mmHg 76%
    13:00 +1°C° 0.1 mm 8 mps 728 mmHg 73%
    14:00 +1°C° 0.1 mm 8 mps 728 mmHg 75%
    15:00 +2°C° 0.1 mm 7 mps 727 mmHg 77%
    16:00 +2°C° 0.1 mm 7 mps 727 mmHg 79%
    17:00 0°C° 0.3 mm 7 mps 726 mmHg 84%
    18:00 +1°C° 0.3 mm 6 mps 726 mmHg 89%
    19:00 +1°C° 0.3 mm 5 mps 726 mmHg 93%
    20:00 +1°C° 1.2 mm 5 mps 724 mmHg 94%
    21:00 +1°C° 1.2 mm 4 mps 723 mmHg 95%
    22:00 +2°C° 1.2 mm 3 mps 722 mmHg 96%
    23:00 +2°C° 0.5 mm 5 mps 723 mmHg 93%

    24 February, Monday

    Time Temperature Precipitation Wind Pressure Humidity
    00:00 +2°C° 0.5 mm 6 mps 723 mmHg 90%
    01:00 +1°C° 0.5 mm 8 mps 723 mmHg 88%
    02:00 0°C° 0.3 mm 8 mps 724 mmHg 88%
    03:00 -1°C° 0.3 mm 8 mps 725 mmHg 89%
    04:00 -3°C° 0.3 mm 9 mps 726 mmHg 90%
    05:00 -2°C° 0.1 mm 8 mps 726 mmHg 86%
    06:00 -2°C° 0.1 mm 7 mps 727 mmHg 82%
    07:00 -2°C° 0.1 mm 7 mps 728 mmHg 78%
    08:00 -2°C° 0 mm 7 mps 729 mmHg 76%
    09:00 -1°C° 0 mm 7 mps 729 mmHg 74%
    10:00 -1°C° 0 mm 7 mps 730 mmHg 72%
    11:00 +1°C° 0 mm 6 mps 730 mmHg 69%
    12:00 +2°C° 0 mm 6 mps 730 mmHg 67%
    13:00 +2°C° 0 mm 6 mps 730 mmHg 64%
    14:00 +2°C° 0 mm 5 mps 730 mmHg 64%
    15:00 +2°C° 0 mm 5 mps 730 mmHg 64%
    16:00 +3°C° 0 mm 4 mps 730 mmHg 63%
    17:00 +3°C° 0 mm 4 mps 730 mmHg 67%
    18:00 +2°C° 0 mm 3 mps 729 mmHg 71%
    19:00 +3°C° 0 mm 2 mps 729 mmHg 75%
    20:00 +3°C° 0 mm 2 mps 729 mmHg 74%
    21:00 +2°C° 0 mm 3 mps 729 mmHg 74%
    22:00 +2°C° 0 mm 3 mps 728 mmHg 73%
    23:00 +2°C° 0 mm 3 mps 727 mmHg 75%

    25 February, Tuesday

    Time Temperature Precipitation Wind Pressure Humidity
    00:00 +1°C° 0 mm 4 mps 727 mmHg 76%
    01:00 +1°C° 0 mm 4 mps 726 mmHg 78%
    02:00 +2°C° 0 mm 5 mps 726 mmHg 82%
    03:00 +2°C° 0 mm 6 mps 725 mmHg 85%
    04:00 +3°C° 0 mm 7 mps 725 mmHg 88%
    05:00 +3°C° 0 mm 7 mps 725 mmHg 88%
    06:00 +3°C° 0 mm 7 mps 725 mmHg 88%
    07:00 +4°C° 0 mm 7 mps 724 mmHg 88%
    08:00 +5°C° 0 mm 7 mps 724 mmHg 84%
    09:00 +5°C° 0 mm 7 mps 724 mmHg 80%
    10:00 +6°C° 0 mm 7 mps 724 mmHg 76%
    11:00 +8°C° 0 mm 7 mps 724 mmHg 73%
    12:00 +8°C° 0 mm 7 mps 723 mmHg 70%
    13:00 +9°C° 0 mm 7 mps 723 mmHg 67%
    14:00 +9°C° 0 mm 6 mps 723 mmHg 68%
    15:00 +8°C° 0 mm 6 mps 722 mmHg 69%
    16:00 +8°C° 0 mm 5 mps 722 mmHg 70%
    17:00 +8°C° 0.1 mm 5 mps 721 mmHg 73%
    18:00 +7°C° 0.1 mm 4 mps 721 mmHg 76%
    19:00 +6°C° 0.1 mm 4 mps 721 mmHg 79%
    20:00 +6°C° 0.2 mm 4 mps 721 mmHg 80%
    21:00 +7°C° 0.2 mm 3 mps 721 mmHg 82%
    22:00 +7°C° 0.2 mm 3 mps 720 mmHg 83%
    23:00 +7°C° 0.2 mm 3 mps 720 mmHg 84%
    Show more